This is the latest recevied weather packets stored in our database for station/object AB8Y-13. If no packets are shown the sender has not sent any weather packets the latest 10 day(s).
| Time | Temp. | Humidity | Pressure | Rain* | Wind** | Luminosity | Snow |
|---|---|---|---|---|---|---|---|
| 1777662462 | 8.33° C | 50% | 1014.7 hPa | 0 mm | - | 96 W/m² | - |
| 1777662157 | 8.89° C | 45% | 1014.7 hPa | 0 mm | - | 123 W/m² | - |
| 1777661853 | 8.89° C | 46% | 1014.4 hPa | 0 mm | - | 196 W/m² | - |
| 1777661549 | 8.89° C | 46% | 1014.6 hPa | 0 mm | - | 499 W/m² | - |
| 1777661245 | 8.89° C | 46% | 1014.8 hPa | 0 mm | - | 422 W/m² | - |
| 1777660941 | 8.33° C | 48% | 1014.5 hPa | 0 mm | - | 295 W/m² | - |
| 1777660637 | 8.33° C | 46% | 1014.6 hPa | 0 mm | - | 231 W/m² | - |
| 1777660334 | 8.89° C | 46% | 1014.7 hPa | 0 mm | - | 223 W/m² | - |
| 1777660030 | 8.89° C | 47% | 1014.6 hPa | 0 mm | - | 291 W/m² | - |
| 1777659727 | 8.89° C | 49% | 1014.5 hPa | 0 mm | - | 329 W/m² | - |
| 1777659424 | 8.89° C | 49% | 1014.5 hPa | 0 mm | - | 395 W/m² | - |
| 1777659121 | 7.78° C | 50% | 1014.6 hPa | 0 mm | - | 504 W/m² | - |
| 1777658819 | 7.78° C | 51% | 1014.7 hPa | 0 mm | - | 286 W/m² | - |
| 1777658515 | 8.33° C | 52% | 1014.5 hPa | 0 mm | - | 174 W/m² | - |
| 1777658212 | 8.89° C | 56% | 1014.5 hPa | 0 mm | - | 215 W/m² | - |
| 1777657909 | 8.89° C | 51% | 1014.4 hPa | 0 mm | - | 426 W/m² | - |
| 1777657605 | 8.89° C | 50% | 1014.5 hPa | 0 mm | - | 358 W/m² | - |
| 1777657303 | 8.89° C | 48% | 1014.6 hPa | 0 mm | - | 279 W/m² | - |
| 1777657000 | 8.33° C | 52% | 1014.4 hPa | 0 mm | - | 458 W/m² | - |
| 1777656697 | 7.78° C | 55% | 1014.6 hPa | 0 mm | - | 358 W/m² | - |
| 1777656393 | 8.33° C | 53% | 1014.8 hPa | 0 mm | - | 294 W/m² | - |
| 1777656088 | 9.44° C | 50% | 1014.6 hPa | 0 mm | - | 288 W/m² | - |
| 1777655784 | 8.89° C | 55% | 1014.6 hPa | 0 mm | - | 784 W/m² | - |
| 1777655482 | 8.33° C | 52% | 1014.6 hPa | 0 mm | - | 402 W/m² | - |
| 1777655179 | 8.33° C | 55% | 1014.7 hPa | 0 mm | - | 322 W/m² | - |
* Rain latest hour (hover to see other rain measurements)
** Current wind speed in m/s (hover to see current wind gust speed)